TimeEDT,TemperatureF,Dew PointF,Humidity,Sea Level PressureIn,VisibilityMPH,Wind Direction,Wind SpeedMPH,Gust SpeedMPH,PrecipitationIn,Events,Conditions,WindDirDegrees,DateUTC
12:15 AM,68.0,65.5,92,30.03,10.0,Calm,Calm,-,N/A,,Mostly Cloudy,0,2013-10-06 04:15:00
12:35 AM,67.3,65.7,95,30.03,7.0,Calm,Calm,-,N/A,,Scattered Clouds,0,2013-10-06 04:35:00
12:55 AM,67.3,65.7,95,30.03,10.0,Calm,Calm,-,N/A,,Scattered Clouds,0,2013-10-06 04:55:00
1:15 AM,66.9,65.3,95,30.02,7.0,Calm,Calm,-,N/A,,Mostly Cloudy,0,2013-10-06 05:15:00
1:35 AM,66.4,65.1,96,30.02,7.0,Calm,Calm,-,N/A,,Mostly Cloudy,0,2013-10-06 05:35:00
1:55 AM,66.2,65.1,96,30.02,7.0,Calm,Calm,-,N/A,,Mostly Cloudy,0,2013-10-06 05:55:00
2:15 AM,65.5,64.4,96,30.02,5.0,Calm,Calm,-,N/A,,Scattered Clouds,0,2013-10-06 06:15:00
2:35 AM,66.2,65.3,97,30.01,7.0,Calm,Calm,-,N/A,,Scattered Clouds,0,2013-10-06 06:35:00
2:55 AM,64.8,64.2,98,30.01,2.0,Calm,Calm,-,N/A,,Clear,0,2013-10-06 06:55:00
3:15 AM,65.5,64.6,97,30.01,2.5,Calm,Calm,-,N/A,,Clear,0,2013-10-06 07:15:00
3:35 AM,64.8,63.9,97,30.01,1.0,Calm,Calm,-,N/A,,Mostly Cloudy,0,2013-10-06 07:35:00
3:55 AM,63.9,63.5,99,30.01,0.2,Calm,Calm,-,N/A,Fog,Fog,0,2013-10-06 07:55:00
4:15 AM,64.0,63.5,98,30.01,0.2,Calm,Calm,-,N/A,Fog,Fog,0,2013-10-06 08:15:00
4:35 AM,63.5,63.0,98,30.00,4.0,Calm,Calm,-,N/A,,Clear,0,2013-10-06 08:35:00
4:55 AM,64.0,63.5,98,30.00,1.0,Calm,Calm,-,N/A,,Mist,0,2013-10-06 08:55:00
5:15 AM,63.3,62.6,97,30.00,0.2,Calm,Calm,-,N/A,Fog,Fog,0,2013-10-06 09:15:00
5:35 AM,64.2,63.5,98,30.01,1.2,Calm,Calm,-,N/A,,Scattered Clouds,0,2013-10-06 09:35:00
5:53 AM,64.4,62.6,94,30.00,1.0,Calm,Calm,-,N/A,,Scattered Clouds,0,2013-10-06 09:53:00
6:53 AM,62.6,62.6,100,30.00,0.1,Calm,Calm,-,N/A,Fog,Fog,0,2013-10-06 10:53:00
7:53 AM,62.6,62.6,100,30.01,2.0,Calm,Calm,-,N/A,,Overcast,0,2013-10-06 11:53:00
8:15 AM,64.4,57.2,77,30.01,4.0,Calm,Calm,-,N/A,,Overcast,0,2013-10-06 12:15:00
8:53 AM,64.4,64.4,100,30.02,3.0,Calm,Calm,-,N/A,,Clear,0,2013-10-06 12:53:00
9:53 AM,68.0,68.0,100,30.02,4.0,Calm,Calm,-,N/A,,Clear,0,2013-10-06 13:53:00
10:53 AM,73.4,66.2,78,30.01,6.0,SSW,5.8,-,N/A,,Haze,200,2013-10-06 14:53:00
11:53 AM,77.0,64.4,65,29.99,7.0,South,6.9,-,N/A,,Partly Cloudy,190,2013-10-06 15:53:00
12:53 PM,78.8,62.6,57,29.98,8.0,SSW,8.1,-,N/A,,Scattered Clouds,200,2013-10-06 16:53:00
1:53 PM,82.4,60.8,48,29.94,10.0,South,11.5,18.4,N/A,,Scattered Clouds,190,2013-10-06 17:53:00
2:53 PM,84.2,60.8,45,29.92,10.0,South,8.1,-,N/A,,Scattered Clouds,180,2013-10-06 18:53:00
3:53 PM,86.0,55.4,35,29.90,10.0,South,11.5,19.6,N/A,,Mostly Cloudy,180,2013-10-06 19:53:00
4:53 PM,84.2,55.4,37,29.89,10.0,South,10.4,-,N/A,,Mostly Cloudy,170,2013-10-06 20:53:00
5:53 PM,78.8,64.4,61,29.89,10.0,SSE,10.4,-,N/A,,Scattered Clouds,150,2013-10-06 21:53:00
7:53 PM,77.0,62.6,61,29.90,10.0,SSE,3.5,-,N/A,,Mostly Cloudy,160,2013-10-06 23:53:00
8:53 PM,77.0,59.0,54,29.90,10.0,South,6.9,-,N/A,,Scattered Clouds,180,2013-10-07 00:53:00
9:15 PM,76.3,58.3,54,29.90,10.0,South,6.9,-,N/A,,Scattered Clouds,180,2013-10-07 01:15:00
9:35 PM,76.5,58.5,54,29.90,10.0,South,6.9,16.1,N/A,,Scattered Clouds,170,2013-10-07 01:35:00
9:55 PM,75.7,58.8,56,29.90,10.0,South,11.5,16.1,N/A,,Scattered Clouds,180,2013-10-07 01:55:00
10:15 PM,75.7,59.0,56,29.90,10.0,South,9.2,19.6,N/A,,Clear,180,2013-10-07 02:15:00
10:35 PM,75.2,59.4,58,29.90,10.0,South,9.2,18.4,N/A,,Clear,170,2013-10-07 02:35:00
10:55 PM,75.2,59.9,59,29.90,10.0,SSE,10.4,16.1,N/A,,Clear,160,2013-10-07 02:55:00
11:15 PM,74.3,60.3,61,29.90,10.0,South,12.7,18.4,N/A,,Clear,170,2013-10-07 03:15:00
11:35 PM,74.3,60.8,63,29.89,10.0,South,8.1,16.1,N/A,,Clear,170,2013-10-07 03:35:00
11:55 PM,74.3,60.6,62,29.89,10.0,South,10.4,16.1,N/A,,Scattered Clouds,170,2013-10-07 03:55:00